Cincinnati, OH

6:22 PM EDT on June 27, 2017 (GMT -0400)
Cincinnati Municipal-Lunken

Weather History for KLUK - November, 2011

Change the Weather History Date:

Wednesday, November 2, 2011

  Actual Average Record
Temperature  
Mean Temperature 50 °F -  
Max Temperature 68 °F 63 °F 82 °F (1987)
Min Temperature 35 °F 43 °F 23 °F (2014)
Degree Days  
Heating Degree Days 14    
Moisture  
Dew Point 38 °F    
Average Humidity 74    
Maximum Humidity 100    
Minimum Humidity 34    
Precipitation  
Precipitation 0.00 in - - ()
Sea Level Pressure  
Sea Level Pressure 30.24 in    
Wind  
Wind Speed 2 mph (SSW)    
Max Wind Speed 16 mph    
Max Gust Speed 21 mph    
Visibility 8 miles    
Events Fog    
Averages and records for this station are not official NWS values.
T = Trace of Precipitation, MM = Missing Value Source: NWS Daily Summary

Daily Weather History Graph

Daily Weather History Graph

Search for Another Location

Airport or City:

Trip Planner

Search our weather history database for the weather conditions in past years. The results will help you decide how hot, cold, wet, or windy it might be!

Date:

Astronomy

Nov. 02, 2011 Rise Set
Actual Time 8:06 AM EDT 6:35 PM EDT
Civil Twilight 7:38 AM EDT 7:03 PM EDT
Nautical Twilight 7:06 AM EDT 7:35 PM EDT
Astronomical Twilight 6:35 AM EDT 8:06 PM EDT
Moon 2:25 PM EDT (11/2) 12:18 AM EDT (11/2)
Length of Visible Light 11h 25m
Length of Day
10h 29m
Waxing Crescent, 50% of the Moon is Illuminated
Nov 2
Waxing Crescent
Nov 2
First Quarter
Nov 10
Full
Nov 18
Last Quarter
Nov 25
New

Hourly Weather History & Observations

Time (EDT) Temp. Dew Point Humidity Pressure Visibility Wind Dir Wind Speed Gust Speed Precip Events Conditions
12:53 AM 39.9 °F 39.0 °F 97% 30.27 in 10.0 mi Calm Calm - N/A   Clear
1:53 AM 37.9 °F 37.0 °F 97% 30.27 in 7.0 mi Calm Calm - N/A   Clear
2:53 AM 37.9 °F 36.0 °F 93% 30.27 in 7.0 mi Calm Calm - N/A   Clear
3:53 AM 37.9 °F 36.0 °F 93% 30.27 in 7.0 mi Calm Calm - N/A   Clear
4:50 AM 35.6 °F 33.8 °F 93% 30.28 in 2.5 mi Calm Calm - N/A   Clear
4:53 AM 35.1 °F 34.0 °F 96% 30.28 in 2.5 mi Calm Calm - N/A   Clear
5:00 AM 35.6 °F 35.6 °F 100% 30.28 in 6.0 mi Calm Calm - N/A   Clear
5:53 AM 36.0 °F 34.0 °F 93% 30.31 in 5.0 mi Calm Calm - N/A   Clear
6:50 AM 35.6 °F 33.8 °F 93% 30.30 in 6.0 mi Calm Calm - N/A Fog Patches of Fog
6:53 AM 35.1 °F 34.0 °F 96% 30.31 in 6.0 mi Calm Calm - N/A Fog Patches of Fog
7:53 AM 35.6 °F 33.8 °F 93% 30.31 in 6.0 mi Calm Calm - N/A Fog Patches of Fog
8:53 AM 37.0 °F 36.0 °F 96% 30.33 in 8.0 mi Calm Calm - N/A Fog Patches of Fog
9:53 AM 44.1 °F 41.0 °F 89% 30.32 in 10.0 mi Calm Calm - N/A   Clear
10:53 AM 53.1 °F 39.0 °F 59% 30.31 in 10.0 mi SSW 6.9 mph - N/A   Clear
11:53 AM 59.0 °F 39.9 °F 49% 30.30 in 10.0 mi South 4.6 mph - N/A   Clear
12:53 PM 64.4 °F 39.2 °F 40% 30.26 in 10.0 mi SSW 15.0 mph - N/A   Clear
1:53 PM 66.2 °F 39.2 °F 37% 30.22 in 10.0 mi SSW 12.7 mph - N/A   Clear
2:53 PM 66.9 °F 37.9 °F 34% 30.19 in 10.0 mi SW 16.1 mph - N/A   Clear
3:53 PM 66.9 °F 39.0 °F 36% 30.17 in 10.0 mi SSW 13.8 mph - N/A   Clear
4:53 PM 66.0 °F 39.0 °F 37% 30.15 in 10.0 mi SW 12.7 mph 20.7 mph N/A   Clear
5:53 PM 63.0 °F 39.9 °F 43% 30.14 in 10.0 mi SSW 6.9 mph - N/A   Clear
6:53 PM 57.0 °F 39.0 °F 51% 30.14 in 10.0 mi SSE 6.9 mph - N/A   Clear
7:53 PM 55.0 °F 39.9 °F 57% 30.15 in 10.0 mi Calm Calm - N/A   Clear
8:53 PM 46.0 °F 39.9 °F 79% 30.14 in 10.0 mi Calm Calm - N/A   Clear
9:53 PM 46.9 °F 41.0 °F 80% 30.14 in 10.0 mi Calm Calm - N/A   Clear
10:53 PM 46.0 °F 41.0 °F 83% 30.13 in 10.0 mi Calm Calm - N/A   Clear
11:53 PM 45.0 °F 41.0 °F 86% 30.12 in 10.0 mi Calm Calm - N/A   Clear